CAPE
0 0 0 0 0 0 0 0 0 0 0 0 0 0 0 0 0 0 0 0 0 0 0 0 0 0 0 0 0 0 0 0 0 0 0 0 0 0 0 0 0 0 0 0
0 0 0 0 0 0 8 7 0 1 10 1 0 0 0 0 0 0 0 0 0 0 0 0 0 0 0 0 0 0 0 0 0 0 0 0 0 0 0 0 0 0 0 0
0 0 0 0 1 17 12 13 2 14 0 0 0 0 0 0 0 0 0 0 0 0 0 0 0 0 0 0 0 0 0 0 0 0 0 0 0 0 0 0 0 0 0 0
1 0 0 0 3 15 21 0 2 0 8 0 0 0 0 0 0 0 0 0 0 0 0 0 0 0 0 0 0 0 0 0 0 0 0 0 0 0 0 0 0 0 0 0
0 0 0 0 14 17 3 0 0 0 0 0 0 0 0 0 0 0 0 0 0 0 0 0 0 0 0 0 0 0 0 0 0 0 0 0 0 0 0 0 0 0 0 0
0 3 1 36 6 11 15 0 0 0 0 0 0 0 0 0 0 0 0 0 0 0 0 0 0 0 0 0 0 0 0 0 0 0 0 0 0 0 0 0 0 0 0 0
0 0 0 9 1 0 0 0 0 0 4 1 0 0 0 0 0 0 0 0 0 0 0 0 0 0 0 0 0 0 0 0 0 0 0 0 0 0 0 0 1 0 0 0
0 0 0 0 0 15 27 1 1 0 0 0 0 0 0 0 0 0 0 0 0 0 0 0 0 0 0 0 0 0 0 0 0 0 0 0 2 0 1 0 3 2 0 0
17 32 0 1 6 15 0 0 0 1 0 0 0 0 0 0 0 0 0 0 0 0 0 0 0 0 0 0 0 0 1 2 3 2 6 9 7 9 6 3 1 4 0 0
13 1 0 9 4 0 1 0 0 0 0 0 0 0 0 0 0 0 0 0 0 0 0 0 0 0 0 0 0 1 2 3 3 6 8 16 14 13 11 13 6 8 0 0
0 8 0 4 0 0 0 0 9 16 0 2 0 0 0 0 0 0 0 0 0 0 0 0 0 0 0 0 0 0 0 0 1 6 9 12 4 4 12 21 21 10 0 0
9 1 0 0 0 0 0 0 1 1 0 0 0 0 0 0 0 0 0 0 0 0 0 0 0 0 0 0 0 0 0 0 0 1 4 14 8 7 13 21 13 4 0 0
0 0 1 0 0 0 0 1 0 0 0 0 0 0 0 0 0 0 0 0 0 0 0 0 0 0 0 0 0 0 0 0 0 0 3 4 3 2 6 10 3 0 0 0
3 2 0 0 0 0 0 0 0 1 3 0 0 0 0 0 0 0 0 0 0 0 0 0 0 0 0 0 0 0 0 0 0 0 0 1 3 2 3 4 0 0 0 0
0 0 0 0 0 0 0 0 0 0 0 0 0 0 0 0 0 0 0 0 0 0 0 0 0 0 0 0 0 0 0 0 0 0 0 0 1 0 0 1 0 0 0 0
0 0 0 0 0 0 0 0 0 0 0 0 0 0 0 0 0 0 0 0 0 0 0 0 0 0 0 0 0 0 0 0 0 0 0 0 0 0 0 0 0 2 0 0
0 0 0 0 0 0 0 0 0 0 0 0 0 0 0 0 0 0 0 0 0 0 0 0 0 0 0 0 0 0 0 0 0 0 0 0 0 0 0 0 1 0 0 0
0 0 0 0 0 0 0 0 0 0 0 0 0 0 0 0 0 0 0 0 0 0 0 0 0 0 0 0 0 0 0 0 0 0 0 0 0 0 0 0 0 0 0 0
0 0 0 0 0 0 1 0 0 0 0 0 6 0 0 0 0 0 0 0 0 0 0 0 0 0 0 0 0 0 0 0 0 0 0 0 0 0 0 0 0 0 0 0
0 0 0 0 0 0 0 0 0 0 0 0 0 0 0 0 0 0 0 0 0 0 0 0 0 0 0 0 0 0 0 0 0 0 0 0 0 0 0 0 0 0 0 0
0 0 0 0 3 3 0 0 0 0 0 0 0 0 0 0 0 0 0 0 0 0 0 0 0 0 0 0 0 0 0 0 0 0 0 0 0 0 0 0 0 0 0 0
0 0 1 0 0 0 0 0 0 0 0 0 0 0 0 0 0 0 0 0 0 0 0 0 0 0 0 0 0 0 0 0 0 0 0 0 0 0 0 0 0 0 0 0
0 0 0 3 0 0 0 0 0 0 0 0 0 0 0 0 0 0 0 0 0 0 0 0 0 0 0 0 0 0 0 0 0 0 0 0 0 0 0 0 0 0 0 0
0 0 6 4 0 0 0 0 0 0 0 0 0 0 0 0 0 0 0 0 0 0 0 0 0 0 0 0 0 0 0 0 0 0 0 0 0 0 0 0 0 0 0 0
0 0 0 0 0 0 0 0 0 0 0 0 0 0 0 0 0 0 0 0 0 0 0 0 0 0 0 0 0 0 0 0 0 0 0 0 0 0 0 0 0 0 0 2
0 0 0 0 0 0 0 0 0 0 0 0 0 0 0 0 0 0 0 0 0 0 0 0 0 0 0 0 0 0 0 0 0 0 0 0 0 0 0 0 0 2 4 6
CIN
-0 -0 -0 -0 -0 -0 -2 -0 -0 -0 -0 -0 -0 -0 -0 -0 -0 -0 -0 -0 -0 -0 -0 -0 -0 -0 -0 -0 -0 -0 -0 -0 -0 -0 -0 -0 -0 -0 -0 -0 -0 -0 -0 -0
-0 -0 -0 -0 -0 -0 -10 -4 -7 -13 -11 -17 -0 -0 -0 -0 -0 -0 -0 -0 -0 -0 -0 -0 -0 -0 -0 -0 -0 -0 -0 -0 -0 -0 -0 -0 -0 -0 -0 -0 -0 -0 -0 -0
-0 -0 -0 -0 -0 -1 -1 -0 -1 -0 -0 -0 -0 -0 -0 -0 -0 -0 -0 -0 -0 -0 -0 -0 -0 -0 -0 -0 -0 -0 -0 -0 -0 -0 -0 -0 -0 -0 -0 -0 -0 -0 -0 -0
-0 -0 -0 -0 -1 -13 -0 -0 -7 -0 -13 -1 -0 -0 -0 -0 -0 -0 -0 -0 -0 -0 -0 -0 -0 -0 -0 -0 -0 -0 -0 -0 -0 -0 -0 -0 -0 -0 -0 -0 -0 -0 -0 -0
-0 -0 -0 -0 -18 -10 -10 -0 -0 -0 -0 -0 -0 -1 -0 -0 -0 -0 -0 -0 -0 -0 -0 -0 -0 -0 -0 -0 -0 -0 -0 -0 -0 -0 -0 -0 -0 -0 -0 -0 -0 -0 -0 -0
-0 -10 -10 -18 -6 -23 -22 -0 -0 -0 -0 -0 -0 -0 -0 -0 -0 -0 -0 -0 -0 -0 -0 -0 -0 -0 -0 -0 -0 -0 -0 -0 -0 -0 -0 -0 -0 -0 -0 -0 -0 -0 -0 -0
-0 -0 -0 -8 -9 -0 -0 -0 -0 -0 -5 -2 -3 -0 -0 -0 -0 -0 -0 -0 -0 -0 -0 -0 -0 -0 -0 -0 -0 -0 -0 -0 -0 -0 -0 -0 -0 -0 -0 -1 -1 -0 -0 -0
-1 -0 -0 -1 -1 -23 -6 -5 -4 -0 -0 -0 -0 -0 -0 -0 -0 -0 -0 -0 -0 -0 -0 -0 -0 -0 -0 -0 -0 -0 -0 -0 -0 -0 -0 -0 -0 -0 -0 -0 -1 -0 -0 -0
-0 -1 -0 -4 -23 -31 -12 -0 -7 -8 -0 -0 -0 -0 -0 -0 -0 -0 -0 -0 -0 -0 -0 -0 -0 -0 -0 -0 -0 -0 -0 -0 -0 -0 -0 -0 -0 -0 -0 -0 -1 -2 -0 -0
-0 -0 -0 -19 -22 -0 -9 -2 -0 -0 -3 -0 -0 -0 -1 -0 -0 -0 -0 -0 -0 -0 -0 -0 -0 -0 -0 -0 -0 -0 -0 -0 -0 -0 -0 -0 -0 -0 -0 -0 -1 -0 -0 -0
-0 -0 -0 -12 -0 -0 -0 -0 -10 -2 -0 -8 -2 -0 -0 -0 -0 -0 -0 -0 -0 -0 -0 -0 -0 -0 -0 -0 -0 -0 -0 -0 -0 -0 -0 -0 -0 -0 -0 -0 -0 -0 -0 -0
-3 -7 -0 -0 -0 -0 -0 -0 -10 -2 -0 -0 -0 -0 -0 -0 -0 -0 -0 -0 -0 -0 -0 -0 -0 -0 -0 -0 -0 -0 -0 -0 -0 -0 -0 -0 -0 -0 -0 -0 -0 -0 -0 -0
-0 -4 -1 -0 -0 -0 -0 -3 -0 -0 -0 -0 -1 -0 -0 -0 -0 -0 -0 -0 -0 -0 -0 -0 -0 -0 -0 -0 -0 -0 -0 -0 -0 -0 -0 -0 -0 -0 -0 -0 -1 -0 -0 -0
-2 -1 -0 -0 -0 -0 -0 -0 -0 -0 -0 -0 -0 -0 -0 -0 -0 -0 -0 -0 -0 -0 -0 -0 -0 -0 -0 -0 -0 -0 -0 -0 -0 -0 -0 -0 -0 -0 -0 -1 -0 -0 -0 -0
-0 -0 -0 -0 -0 -0 -0 -0 -0 -0 -0 -0 -0 -0 -0 -0 -0 -0 -0 -0 -0 -0 -0 -0 -0 -0 -0 -0 -0 -0 -0 -0 -0 -0 -0 -0 -0 -0 -0 -0 -0 -0 -0 -0
-1 -0 -0 -0 -0 -0 -0 -0 -0 -0 -0 -0 -0 -0 -0 -0 -0 -0 -0 -0 -0 -0 -0 -0 -0 -0 -0 -0 -0 -0 -0 -0 -0 -0 -0 -0 -0 -0 -0 -1 -0 -2 -0 -0
-2 -0 -0 -0 -0 -0 -0 -0 -0 -0 -0 -0 -0 -0 -0 -0 -0 -0 -0 -0 -0 -0 -0 -0 -0 -0 -0 -0 -0 -0 -0 -0 -0 -0 -0 -0 -0 -0 -0 -0 -4 -0 -0 -0
-0 -0 -0 -0 -0 -0 -0 -0 -0 -0 -0 -0 -0 -0 -0 -0 -0 -0 -0 -0 -0 -0 -0 -0 -0 -0 -0 -0 -0 -0 -0 -0 -0 -0 -0 -0 -0 -0 -0 -0 -0 -0 -0 -0
-0 -0 -0 -0 -0 -0 -0 -0 -0 -0 -0 -0 -3 -0 -0 -0 -0 -0 -0 -0 -0 -0 -0 -0 -0 -0 -0 -0 -0 -0 -0 -0 -0 -0 -0 -0 -0 -0 -0 -0 -0 -0 -0 -0
-0 -0 -0 -0 -0 -0 -0 -0 -0 -0 -0 -0 -0 -0 -0 -0 -0 -0 -0 -0 -0 -0 -0 -0 -0 -0 -0 -0 -0 -0 -0 -0 -0 -0 -0 -0 -0 -0 -0 -0 -0 -0 -0 -0
-0 -1 -0 -0 -1 -1 -0 -0 -0 -0 -0 -0 -0 -0 -0 -0 -0 -0 -0 -0 -0 -0 -0 -0 -0 -0 -0 -0 -0 -0 -0 -0 -0 -0 -0 -0 -0 -0 -0 -0 -0 -0 -0 -0
-0 -0 -3 -0 -0 -0 -0 -0 -0 -0 -0 -0 -0 -0 -0 -0 -0 -0 -0 -0 -0 -0 -0 -0 -0 -0 -0 -0 -0 -0 -0 -0 -0 -0 -0 -0 -0 -0 -0 -0 -0 -0 -0 -0
-0 -0 -0 -1 -0 -0 -0 -0 -0 -0 -0 -0 -0 -0 -0 -0 -0 -0 -0 -0 -0 -0 -0 -0 -0 -0 -0 -0 -0 -0 -0 -0 -0 -0 -0 -0 -0 -0 -0 -0 -0 -0 -0 -0
-0 -0 -8 -4 -0 -0 -0 -0 -0 -0 -0 -0 -0 -0 -0 -0 -0 -0 -0 -0 -0 -0 -0 -0 -0 -0 -0 -0 -0 -0 -0 -0 -0 -0 -0 -0 -0 -0 -0 -0 -0 -1 -0 -0
-0 -0 -0 -0 -0 -0 -0 -0 -0 -0 -0 -0 -0 -0 -0 -0 -0 -0 -0 -0 -0 -0 -0 -0 -0 -0 -0 -0 -0 -0 -0 -0 -0 -0 -0 -0 -0 -0 -0 -0 -0 -0 -1 -0
-0 -0 -0 -0 -0 -0 -0 -0 -0 -0 -0 -0 -0 -0 -0 -0 -0 -0 -0 -0 -0 -0 -0 -0 -0 -0 -0 -0 -0 -0 -0 -0 -0 -0 -0 -0 -0 -0 -0 -0 -0 -0 -0 -0
Wind_Speed
9 14 16 18 19 26 21 25 26 24 22 24 21 23 25 19 16 19 20 20 19 10 6 9 7 4 4 5 7 8 8 9 7 5 7 7 7 7 8 8 10 9 8 9
13 16 16 22 27 27 19 23 25 22 18 19 22 25 20 22 21 15 14 8 9 10 8 7 7 6 6 7 8 10 11 11 9 7 6 7 7 8 8 6 8 10 9 10
14 19 18 19 18 21 20 23 20 22 21 17 18 22 17 21 20 21 5 5 6 5 7 8 8 8 8 8 8 11 12 12 12 12 9 9 10 9 10 10 9 10 8 8
12 9 22 22 21 18 20 17 20 20 15 10 8 19 23 19 20 9 9 2 4 7 7 9 11 11 8 10 9 11 13 13 13 12 11 14 12 13 10 9 10 10 11 11
16 20 21 20 16 18 13 12 19 20 18 15 22 7 7 14 7 6 4 6 7 8 10 12 12 13 11 11 11 10 13 14 14 13 14 12 14 13 11 10 15 11 10 11
18 17 13 16 12 12 13 8 16 16 12 7 17 9 4 7 7 5 7 8 9 12 12 12 12 13 13 12 12 12 14 15 14 15 16 17 18 17 13 13 11 11 8 7
22 13 10 11 5 7 3 4 8 6 4 7 13 12 7 15 5 6 4 7 9 12 13 14 15 15 15 15 15 14 15 16 15 16 17 17 19 19 19 17 12 15 10 10
9 13 11 12 11 13 11 3 4 8 5 11 17 6 6 10 10 6 4 5 11 13 13 14 15 15 15 16 16 17 17 17 16 17 19 17 19 14 14 16 14 13 12 9
9 7 16 16 3 5 3 3 4 8 8 3 5 7 9 11 7 7 9 11 12 14 14 16 16 17 16 16 16 17 18 19 18 19 17 19 18 20 19 20 18 14 18 9
6 20 15 18 3 7 5 7 5 2 5 7 7 12 6 7 6 11 14 10 12 13 14 15 16 17 15 16 16 17 17 19 19 19 17 17 19 20 20 19 20 20 18 18
13 7 13 7 3 15 7 4 3 4 1 4 10 8 4 3 4 6 6 10 10 11 11 13 14 14 15 15 15 16 16 17 18 18 17 19 20 21 20 19 19 20 18 18
5 8 8 15 12 1 2 3 2 1 7 3 6 16 1 6 5 2 6 10 10 9 13 12 13 14 15 16 16 16 15 16 17 17 18 19 20 20 19 20 21 21 20 15
7 3 12 9 7 3 4 3 3 3 3 8 7 12 7 21 13 8 6 8 9 13 15 14 15 15 16 18 18 16 16 17 17 17 17 18 20 20 21 21 20 20 16 19
7 3 4 10 9 10 11 11 5 5 3 9 10 19 19 20 18 15 9 8 8 10 13 14 15 16 17 19 18 19 18 17 17 17 17 18 18 21 21 21 19 19 15 15
1 6 5 9 12 14 14 16 10 5 10 9 16 15 22 18 14 9 8 7 9 12 14 15 16 17 19 20 21 20 20 19 18 17 15 15 16 18 20 20 17 17 15 12
3 5 3 9 11 8 8 10 9 12 9 5 8 13 10 6 7 7 8 8 11 13 14 16 16 18 20 20 21 21 21 19 19 17 16 14 9 15 16 15 15 14 11 9
3 2 2 6 2 5 5 5 4 3 3 4 3 7 10 12 9 7 8 7 9 11 14 17 16 16 18 19 21 21 20 19 19 18 18 14 8 10 10 10 9 12 9 9
3 2 3 6 6 2 4 3 2 5 7 5 10 13 9 8 6 7 3 5 10 9 13 14 14 16 18 18 20 21 21 22 19 18 18 19 16 13 10 12 10 9 9 12
7 2 4 1 2 10 4 4 2 4 8 4 5 9 9 8 5 4 2 3 6 7 9 10 11 13 15 18 20 20 21 22 21 21 21 20 16 15 17 15 13 12 13 12
4 9 1 4 2 3 2 5 3 1 2 2 2 6 7 11 6 5 7 4 8 8 7 11 11 10 12 16 18 17 19 22 23 23 23 19 16 21 18 15 15 16 17 16
6 2 5 6 4 4 3 4 1 3 5 5 2 5 3 4 4 5 7 5 4 6 8 10 11 9 10 14 15 15 16 18 19 16 17 19 23 23 21 20 18 16 20 21
2 1 2 3 2 4 1 4 4 6 6 4 5 4 4 6 7 3 7 8 5 8 8 8 11 11 10 11 13 15 18 18 17 16 20 22 22 18 16 19 17 19 19 20
3 4 4 2 6 12 3 6 7 3 5 6 5 5 5 6 5 5 3 7 4 4 6 6 8 11 10 10 11 14 18 18 17 18 18 18 20 19 18 19 19 16 16 16
5 3 3 3 6 5 6 2 3 2 5 9 6 8 6 7 6 7 3 4 5 4 4 5 7 9 11 12 11 9 12 16 15 17 18 17 17 17 19 16 15 15 15 14
6 7 7 12 16 8 4 5 7 7 6 8 10 7 8 6 7 6 4 3 3 5 4 4 6 6 8 11 10 10 13 11 11 12 13 15 14 15 13 15 14 13 17 16
4 6 5 7 3 4 6 6 8 7 9 11 12 14 11 8 7 6 4 3 4 3 3 3 5 5 7 6 9 11 10 11 9 11 10 10 10 11 11 11 10 27 29 29
Wind_Direction
301 301 274 279 278 280 300 301 293 286 289 290 282 283 283 285 288 285 277 271 262 267 312 61 53 16 320 293 282 277 285 288 287 281 280 273 276 249 252 253 251 248 247 245
301 273 294 318 304 295 298 293 298 298 302 303 297 288 292 281 273 280 300 322 43 32 11 13 5 347 314 300 298 297 292 291 287 281 276 274 265 261 265 265 262 242 238 234
296 287 308 302 303 308 296 302 310 304 303 294 295 292 299 293 297 280 74 33 56 37 14 353 332 318 321 312 307 302 298 294 290 288 288 285 282 270 266 264 255 255 256 245
281 324 305 305 302 296 307 313 303 301 308 291 320 290 290 289 281 254 120 86 32 17 357 340 325 313 309 305 301 295 290 285 281 279 274 264 263 267 260 252 247 248 237 241
271 296 307 299 286 295 299 315 311 297 284 291 282 258 266 264 30 43 81 49 16 357 348 325 314 315 317 311 299 295 293 287 285 278 271 269 265 268 264 253 262 257 237 231
265 278 272 288 302 283 311 310 296 279 265 248 261 295 266 328 28 39 48 13 357 340 318 316 322 321 313 310 303 299 294 290 288 283 280 276 265 267 262 255 264 248 247 235
309 283 294 315 338 310 53 323 307 318 334 265 322 326 266 288 79 81 32 1 333 317 327 324 324 321 314 308 304 299 296 294 290 284 277 273 271 270 263 265 248 262 238 231
298 304 312 335 306 295 302 275 288 295 291 303 308 263 274 55 81 95 12 323 319 330 325 324 318 313 311 309 308 303 299 292 284 278 275 272 266 261 261 255 252 247 253 225
318 308 332 303 4 325 292 233 286 292 251 267 241 278 319 72 59 17 328 338 333 326 329 321 320 318 313 308 303 299 294 290 284 279 271 263 261 258 256 252 252 247 248 234
298 300 307 282 333 295 220 319 324 278 298 305 292 299 301 354 345 343 341 332 329 324 324 322 317 311 308 305 303 300 294 289 285 278 271 267 260 255 253 251 244 245 238 240
308 240 320 317 359 303 282 269 253 269 253 299 324 296 230 236 243 304 327 327 318 316 308 302 299 304 305 303 301 297 294 288 285 281 274 267 259 254 252 252 245 246 239 222
287 304 290 291 294 157 254 275 272 258 310 283 263 294 245 185 244 354 331 311 307 306 300 302 307 310 311 312 308 304 297 291 281 276 272 262 257 251 246 242 237 247 225 229
297 224 302 315 328 56 289 165 238 276 250 247 278 281 294 319 328 333 307 299 308 308 311 319 320 318 318 318 310 309 304 296 287 281 270 261 250 241 236 235 232 234 238 223
350 314 242 279 277 291 293 294 268 193 250 287 264 294 304 314 317 320 310 301 309 306 316 322 323 325 324 318 316 316 314 307 299 292 273 258 243 229 223 225 226 231 246 217
235 249 227 251 262 276 261 265 277 214 249 264 294 304 297 305 305 293 288 324 317 321 329 329 329 328 325 322 323 325 320 318 314 298 286 269 244 224 218 214 219 224 237 216
218 278 342 287 248 248 256 269 266 268 278 271 283 283 264 285 307 318 324 328 319 326 330 328 332 333 328 325 323 323 326 326 323 321 317 307 208 191 194 203 217 216 216 170
255 344 310 265 252 310 311 258 222 282 194 173 279 268 319 323 327 307 319 317 308 318 330 329 333 333 324 327 324 328 330 334 339 341 346 1 17 103 131 143 152 173 147 151
267 169 224 270 336 343 247 3 142 205 246 232 273 284 301 297 278 278 318 292 309 321 331 329 331 330 328 328 331 332 340 347 349 355 1 16 23 45 70 97 90 89 119 164
203 180 280 186 275 267 101 347 332 99 293 243 295 304 305 308 306 297 315 280 278 306 314 313 327 328 330 334 335 340 347 345 355 1 11 15 27 48 59 71 78 87 101 88
217 205 255 338 260 267 229 305 159 109 249 335 254 280 313 329 345 277 304 306 309 310 312 321 334 334 344 340 336 348 348 349 357 3 5 6 20 44 51 60 72 74 76 83
314 291 208 253 288 295 236 304 259 286 289 294 236 256 302 323 231 259 301 308 288 295 318 332 337 344 351 342 342 351 350 353 348 358 1 15 28 36 36 41 47 60 69 66
234 324 319 345 284 319 182 318 7 261 294 271 290 267 264 255 286 260 283 293 308 318 334 342 338 346 354 354 352 353 356 340 353 5 15 19 24 28 31 41 46 47 55 61
299 197 220 232 246 301 277 212 262 238 246 289 293 310 302 307 299 263 257 284 316 333 330 336 348 339 345 3 12 2 342 341 352 9 24 21 23 31 34 36 41 45 48 63
265 278 222 340 273 285 277 214 278 231 255 289 302 306 312 308 309 303 234 277 303 333 344 333 348 354 348 355 9 7 352 342 352 11 12 18 29 29 30 38 36 46 45 48
260 293 258 273 280 302 261 20 6 333 330 345 335 323 317 304 307 293 267 192 265 308 339 353 346 349 353 346 360 1 352 355 5 20 19 16 18 23 31 40 51 50 54 56
214 229 218 259 117 248 272 347 352 358 335 332 328 324 322 320 299 301 266 216 177 235 313 340 343 348 347 2 351 354 1 356 17 28 24 25 21 18 24 29 29 41 51 53